Location: Albert Place
(40.7505°N, 111.9230°W)
Time: 13:55:44
(UTC+00:00)

Cosmos 2285 Rocket - Pass Details

Date: 13 December 2025
Orbit: 969 x 999 km, 74.0° (Epoch: 17 January)

Event Time Altitude Azimuth Distance (km) Brightness Sun altitude
Exits shadow 13:40:51 - 332° (NNW) 3,219 6.3 -11.5°
Reaches altitude 10° 13:42:09 10° 329° (NNW) 2,755 5.9 -11.3°
Maximum altitude 13:48:13 48° 258° (WSW) 1,284 4.3 -10.2°
Drops below altitude 10° 13:54:18 10° 186° (S) 2,754 6.6 -9.2°
Sets 13:56:56 0° 181° (S) 3,701 7.3 -8.7°
